Location: Pine Mountain Observatory
(43.7910°N, 120.9377°W)
Time: 10:43:48
(UTC-07:00)

Vanguard 1 Rocket - Pass Details

Date: 24 May 2019
Orbit: 652 x 4224 km, 34.3° (Epoch: 23 June)

Event Time Altitude Azimuth Distance (km) Brightness Sun altitude
Exits shadow 02:33:28 27° 151° (SSE) 1,736 8.5 -22.0°
Drops below altitude 10° 02:39:20 10° 102° (ESE) 3,343 10.4 -21.6°
Sets 02:43:43 0° 92° (E) 4,895 11.5 -21.3°
